Quincy, IL

5:49 PM CST on November 18, 2019 (GMT -0600)
Quincy Regional-Baldwin

Weather History for KUIN - September, 2019

Change the Weather History Date:

Thursday, September 12, 2019

  Actual Average Record
Temperature  
Mean Temperature 81 °F 68 °F  
Max Temperature 91 °F 79 °F 99 °F (1927)
Min Temperature 71 °F 57 °F 35 °F (1940)
Degree Days  
Heating Degree Days 0 2  
Month to date heating degree days 0 12  
Since 1 July heating degree days 2 17  
Cooling Degree Days 16 5  
Month to date cooling degree days 102 72  
Year to date cooling degree days 1159 1025  
Growing Degree Days 31 (Base 50)    
Moisture  
Dew Point 70 °F    
Average Humidity 72    
Maximum Humidity 93    
Minimum Humidity 50    
Precipitation  
Precipitation 0.00 in 0.10 in 3.53 in (1977)
Month to date precipitation 0.68 1.32  
Year to date precipitation 31.71 27.07  
Sea Level Pressure  
Sea Level Pressure 30.01 in    
Wind  
Wind Speed 7 mph ()    
Max Wind Speed 18 mph    
Max Gust Speed 31 mph    
Visibility 9.8 miles    
Events      
T = Trace of Precipitation, MM = Missing Value Source: Averaged Metar Reports

Daily Weather History Graph

Daily Weather History Graph

Search for Another Location

Airport or City:

Astronomy

Sep. 12, 2019 Rise Set
Actual Time 6:42 AM CDT 7:18 PM CDT
Civil Twilight 6:15 AM CDT 7:45 PM CDT
Nautical Twilight 5:43 AM CDT 8:18 PM CDT
Astronomical Twilight 5:10 AM CDT 8:51 PM CDT
Moon 7:02 PM CDT (9/12) 5:02 AM CDT (9/12)
Length of Visible Light 13h 30m
Length of Day
12h 35m
Waxing Gibbous, 98% of the Moon is Illuminated
Sep 12
Waxing Gibbous
Sep 13
Full
Sep 21
Last Quarter
Sep 28
New
Oct 5
First Quarter

Hourly Weather History & Observations

Time (CDT) Temp. Heat Index Dew Point Humidity Pressure Visibility Wind Dir Wind Speed Gust Speed Precip Events Conditions
12:54 AM 75.0 °F - 70.0 °F 84% 29.99 in 10.0 mi SSE 4.6 mph - N/A   Clear
1:54 AM 75.0 °F - 70.0 °F 84% 30.01 in 10.0 mi South 5.8 mph - N/A   Clear
2:54 AM 73.9 °F - 69.1 °F 85% 30.01 in 10.0 mi South 4.6 mph - N/A   Clear
3:54 AM 72.0 °F - 69.1 °F 91% 30.03 in 9.0 mi SSW 5.8 mph - N/A   Clear
4:54 AM 72.0 °F - 68.0 °F 87% 30.04 in 9.0 mi South 5.8 mph - N/A   Clear
5:54 AM 72.0 °F - 68.0 °F 87% 30.05 in 9.0 mi South 6.9 mph - N/A   Clear
6:54 AM 73.0 °F - 68.0 °F 84% 30.06 in 8.0 mi SSE 5.8 mph - N/A   Clear
7:54 AM 73.9 °F - 69.1 °F 85% 30.06 in 10.0 mi South 6.9 mph - N/A   Clear
8:54 AM 78.1 °F - 71.1 °F 79% 30.06 in 10.0 mi South 8.1 mph - N/A   Clear
9:54 AM 82.0 °F 86.3 °F 71.1 °F 69% 30.05 in 10.0 mi SSW 12.7 mph - N/A   Clear
10:54 AM 86.0 °F 91.5 °F 71.1 °F 61% 30.04 in 10.0 mi South 10.4 mph - N/A   Clear
11:54 AM 87.1 °F 92.0 °F 70.0 °F 57% 30.04 in 10.0 mi South 12.7 mph - N/A   Clear
12:54 PM 89.1 °F 95.0 °F 71.1 °F 55% 30.02 in 10.0 mi South 12.7 mph - N/A   Clear
1:54 PM 90.0 °F 95.4 °F 70.0 °F 52% 30.01 in 10.0 mi South 15.0 mph 24.2 mph N/A   Clear
2:54 PM 90.0 °F 94.5 °F 69.1 °F 50% 29.99 in 10.0 mi South 16.1 mph 24.2 mph N/A   Clear
3:54 PM 88.0 °F 92.1 °F 69.1 °F 53% 29.99 in 10.0 mi South 13.8 mph - N/A   Partly Cloudy
4:54 PM 89.1 °F 95.0 °F 71.1 °F 55% 29.97 in 10.0 mi South 11.5 mph - N/A   Partly Cloudy
5:54 PM 86.0 °F 91.5 °F 71.1 °F 61% 29.96 in 10.0 mi South 15.0 mph 28.8 mph N/A   Partly Cloudy
6:54 PM 81.0 °F 84.4 °F 70.0 °F 69% 29.95 in 10.0 mi South 11.5 mph - N/A   Clear
7:54 PM 77.0 °F - 70.0 °F 79% 29.94 in 10.0 mi South 6.9 mph - N/A   Clear
8:54 PM 77.0 °F - 71.1 °F 82% 29.98 in 10.0 mi SSW 6.9 mph - N/A   Clear
9:54 PM 78.1 °F - 71.1 °F 79% 29.98 in 10.0 mi South 9.2 mph - N/A   Clear
10:54 PM 79.0 °F - 70.0 °F 74% 29.96 in 10.0 mi South 11.5 mph - N/A   Mostly Cloudy
11:54 PM 78.1 °F - 70.0 °F 76% 29.99 in 10.0 mi WSW 8.1 mph - N/A   Scattered Clouds